This is the latest recevied weather packets stored in our database for station/object M0JUI-1. If no packets are shown the sender has not sent any weather packets the latest 10 day(s).
| Time | Temp. | Humidity | Pressure | Rain* | Wind** | Luminosity | Snow |
|---|---|---|---|---|---|---|---|
| 1777559750 | 21.11° C | 51% | 1021.4 hPa | 0 mm | - | 544 W/m² | - |
| 1777559451 | 21.11° C | 52% | 1021.3 hPa | 0 mm | - | 558 W/m² | - |
| 1777559151 | 21.67° C | 51% | 1021.4 hPa | 0 mm | - | 565 W/m² | - |
| 1777558838 | 21.11° C | 52% | 1021.4 hPa | 0 mm | - | 575 W/m² | - |
| 1777558539 | 21.11° C | 51% | 1021.4 hPa | 0 mm | - | 547 W/m² | - |
| 1777558238 | 21.11° C | 52% | 1021.6 hPa | 0 mm | - | 547 W/m² | - |
| 1777557914 | 20.56° C | 54% | 1021.7 hPa | 0 mm | - | 576 W/m² | - |
| 1777557616 | 21.11° C | 54% | 1021.8 hPa | 0 mm | - | 594 W/m² | - |
| 1777557315 | 20.56° C | 53% | 1021.6 hPa | 0 mm | - | 594 W/m² | - |
| 1777557016 | 20.56° C | 54% | 1021.9 hPa | 0 mm | - | 590 W/m² | - |
| 1777556714 | 20.56° C | 54% | 1021.9 hPa | 0 mm | - | 570 W/m² | - |
| 1777556415 | 20.56° C | 54% | 1021.8 hPa | 0 mm | - | 591 W/m² | - |
| 1777556114 | 20° C | 55% | 1022 hPa | 0 mm | - | 614 W/m² | - |
| 1777555816 | 20.56° C | 55% | 1021.9 hPa | 0 mm | - | 634 W/m² | - |
| 1777555514 | 20.56° C | 54% | 1022 hPa | 0 mm | - | 626 W/m² | - |
| 1777555217 | 20.56° C | 54% | 1021.9 hPa | 0 mm | - | 632 W/m² | - |
| 1777554914 | 20.56° C | 55% | 1021.8 hPa | 0 mm | - | 622 W/m² | - |
| 1777554617 | 20.56° C | 55% | 1022 hPa | 0 mm | - | 603 W/m² | - |
| 1777554314 | 20.56° C | 55% | 1021.8 hPa | 0 mm | - | 645 W/m² | - |
| 1777554018 | 20.56° C | 56% | 1021.8 hPa | 0 mm | - | 652 W/m² | - |
| 1777553714 | 20° C | 56% | 1022 hPa | 0 mm | - | 655 W/m² | - |
| 1777553415 | 20° C | 56% | 1022 hPa | 0 mm | - | 656 W/m² | - |
| 1777553114 | 20° C | 56% | 1022.1 hPa | 0 mm | - | 650 W/m² | - |
| 1777552816 | 19.44° C | 58% | 1022.2 hPa | 0 mm | - | 647 W/m² | - |
| 1777552502 | 19.44° C | 58% | 1022.3 hPa | 0 mm | - | 649 W/m² | - |
* Rain latest hour (hover to see other rain measurements)
** Current wind speed in m/s (hover to see current wind gust speed)